Lewiston, ID

11:09 AM PDT on September 30, 2016 (GMT -0700)
Lewiston-Nez Perce County

Weather History for KLWS - April, 2013

Change the Weather History Date:

Sunday, April 28, 2013

  Actual Average Record
Temperature  
Mean Temperature 60 °F 54 °F  
Max Temperature 69 °F 66 °F 98 °F (1939)
Min Temperature 51 °F 42 °F 27 °F (1907)
Degree Days  
Heating Degree Days 5 11  
Month to date heating degree days 399 391  
Since 1 July heating degree days 4389 4858  
Cooling Degree Days 0 0  
Month to date cooling degree days 0 0  
Year to date cooling degree days 0 0  
Growing Degree Days 10 (Base 50)    
Moisture  
Dew Point 37 °F    
Average Humidity 45    
Maximum Humidity 64    
Minimum Humidity 26    
Precipitation  
Precipitation T in 0.05 in 0.73 in (1952)
Month to date precipitation 1.15 1.23  
Year to date precipitation 3.00 4.24  
Snow  
Snow 0.00 in 0.00 in T in (1962)
Month to date snowfall 0.0 0.0  
Since 1 July snowfall 2.6 10.5  
Snow Depth 0.00 in    
Sea Level Pressure  
Sea Level Pressure 30.03 in    
Wind  
Wind Speed 6 mph (West)    
Max Wind Speed 21 mph    
Max Gust Speed 30 mph    
Visibility 10 miles    
Events Rain    
T = Trace of Precipitation, MM = Missing Value Source: NWS Daily Summary

Daily Weather History Graph

Daily Weather History Graph

Search for Another Location

Airport or City:

Trip Planner

Search our weather history database for the weather conditions in past years. The results will help you decide how hot, cold, wet, or windy it might be!

Date:

Astronomy

Apr. 28, 2013 Rise Set
Actual Time 5:38 AM PDT 7:53 PM PDT
Civil Twilight 5:05 AM PDT 8:26 PM PDT
Nautical Twilight 4:24 AM PDT 9:07 PM PDT
Astronomical Twilight 3:38 AM PDT 9:54 PM PDT
Moon 11:34 PM PDT (4/28) 7:53 AM PDT (4/28)
Length of Visible Light 15h 21m
Length of Day
14h 15m
Waning Gibbous, 88% of the Moon is Illuminated
Apr 28
Waning Gibbous
May 2
Last Quarter
May 9
New
May 17
First Quarter
May 24
Full

Hourly Weather History & Observations

Time (PDT) Temp. Dew Point Humidity Pressure Visibility Wind Dir Wind Speed Gust Speed Precip Events Conditions
12:56 AM 57.9 °F 39.0 °F 49% 30.06 in 10.0 mi NNW 3.5 mph - N/A   Partly Cloudy
1:56 AM 57.9 °F 37.9 °F 47% 30.06 in 10.0 mi Calm Calm - N/A   Overcast
2:56 AM 55.9 °F 37.9 °F 51% 30.06 in 10.0 mi NW 5.8 mph - N/A   Mostly Cloudy
3:56 AM 55.9 °F 39.0 °F 53% 30.07 in 10.0 mi West 9.2 mph - N/A   Overcast
4:56 AM 54.0 °F 39.9 °F 59% 30.07 in 10.0 mi West 5.8 mph - N/A   Overcast
5:56 AM 51.1 °F 39.9 °F 66% 30.09 in 10.0 mi WSW 4.6 mph - N/A   Partly Cloudy
6:56 AM 53.1 °F 39.9 °F 61% 30.09 in 10.0 mi SSE 4.6 mph - N/A   Mostly Cloudy
7:56 AM 54.0 °F 39.9 °F 59% 30.11 in 10.0 mi Calm Calm - N/A   Overcast
8:56 AM 54.0 °F 41.0 °F 62% 30.11 in 10.0 mi Calm Calm - N/A   Overcast
9:56 AM 57.0 °F 41.0 °F 55% 30.11 in 10.0 mi Calm Calm - N/A   Overcast
10:56 AM 57.9 °F 41.0 °F 53% 30.11 in 10.0 mi Calm Calm - 0.00 in Rain Light Rain
11:56 AM 61.0 °F 41.0 °F 48% 30.09 in 10.0 mi SSE 3.5 mph - 0.00 in   Mostly Cloudy
12:56 PM 62.1 °F 39.0 °F 43% 30.07 in 10.0 mi Variable 3.5 mph - N/A   Mostly Cloudy
1:56 PM 66.0 °F 37.0 °F 34% 30.04 in 10.0 mi Variable 4.6 mph - N/A   Mostly Cloudy
2:56 PM 66.0 °F 34.0 °F 30% 30.01 in 10.0 mi West 9.2 mph 23.0 mph N/A   Mostly Cloudy
3:56 PM 66.0 °F 34.0 °F 30% 29.99 in 10.0 mi WNW 9.2 mph 16.1 mph N/A   Overcast
4:56 PM 66.9 °F 35.1 °F 31% 29.96 in 10.0 mi West 17.3 mph 23.0 mph N/A   Mostly Cloudy
5:03 PM 68.0 °F 35.6 °F 30% 29.96 in 10.0 mi WNW 15.0 mph 24.2 mph N/A   Scattered Clouds
5:56 PM 66.0 °F 30.9 °F 27% 29.96 in 10.0 mi West 16.1 mph 21.9 mph N/A   Clear
6:56 PM 63.0 °F 28.0 °F 27% 29.96 in 10.0 mi West 17.3 mph 24.2 mph N/A   Clear
7:56 PM 60.1 °F 30.9 °F 33% 29.96 in 10.0 mi West 8.1 mph - N/A   Clear
8:56 PM 59.0 °F 33.1 °F 38% 29.96 in 10.0 mi West 6.9 mph - N/A   Partly Cloudy
9:56 PM 57.9 °F 34.0 °F 41% 29.95 in 10.0 mi SW 3.5 mph - N/A   Clear
10:56 PM 57.0 °F 35.1 °F 44% 29.93 in 10.0 mi South 4.6 mph - N/A   Overcast
11:56 PM 57.0 °F 35.1 °F 44% 29.91 in 10.0 mi South 3.5 mph - N/A   Overcast